This demonstration page uses our WeatherBlox Daily Observations layout. Learn more.

Left ArrowRight Arrow

39.29038, -76.61219

Hourly Observations for January 24, 2022

Temp ( °F °C ) Dew Point ( °F °C ) Humidity (%) Winds ( mph kmh ) Pressure ( in mb ) Visibility ( mi km ) Precip ( " mm )
12:54 am 00:54 Mostly Cloudy 32 0 23 -5 69 69 Calm 29.81 1010 10 16 0.00 0.00
1:54 am 01:54 Cloudy 31 -0.6 23 -5 72 72 W 5 7 29.82 1010 10 16 0.00 0.00
2:54 am 02:54 Cloudy 32 0 22 -5.6 66 66 Calm 29.84 1010 10 16 0.00 0.00
3:54 am 03:54 Cloudy 30 -1.1 23 -5 75 75 Calm 29.85 1011 10 16 0.00 0.00
4:54 am 04:54 Mostly Cloudy 32 0 23 -5 69 69 NNW 5 7 29.88 1012 10 16 0.00 0.00
5:54 am 05:54 Mostly Cloudy 32 0 22 -5.6 66 66 NNW 7 11 29.90 1013 10 16 0.00 0.00
6:54 am 06:54 Partly Cloudy 31 -0.6 19 -7.2 61 61 VRB 3 6 29.93 1013 10 16 0.00 0.00
7:54 am 07:54 Mostly Sunny 29 -1.7 19 -7.2 66 66 Calm 29.94 1014 10 16 0.00 0.00
8:54 am 08:54 Mostly Sunny 33 0.6 18 -7.8 54 54 VRB 6 9 29.94 1014 10 16 0.00 0.00
9:54 am 09:54 Mostly Sunny 35 1.7 17 -8.3 48 48 NNW 7 11 29.94 1014 10 16 0.00 0.00
10:54 am 10:54 Partly Cloudy 37 2.8 16 -8.9 42 42 VRB 5 7 29.93 1014 10 16 0.00 0.00
11:54 am 11:54 Partly Cloudy 36 2.2 16 -8.9 44 44 Calm 29.91 1013 10 16 0.00 0.00
12:54 pm 12:54 Partly Cloudy 40 4.4 17 -8.3 40 40 SW 6 9 29.87 1012 10 16 0.00 0.00
1:54 pm 13:54 Mostly Cloudy 41 5 18 -7.8 39 39 VRB 7 11 29.85 1011 10 16 0.00 0.00
2:54 pm 14:54 Mostly Cloudy 39 3.9 20 -6.7 46 46 SE 10 17 29.84 1010 10 16 0.00 0.00
3:54 pm 15:54 Mostly Cloudy 38 3.3 21 -6.1 51 51 SSE 9 15 29.83 1010 10 16 0.00 0.00
4:54 pm 16:54 Mostly Cloudy 37 2.8 22 -5.6 54 54 SSE 9 15 29.84 1011 10 16 0.00 0.00
5:54 pm 17:54 Cloudy 36 2.2 24 -4.4 62 62 SE 5 7 29.84 1011 10 16 0.00 0.00
6:54 pm 18:54 Mostly Cloudy 35 1.7 24 -4.4 64 64 SSE 6 9 29.83 1010 10 16 0.00 0.00
7:54 pm 19:54 Partly Cloudy 34 1.1 25 -3.9 70 70 VRB 5 7 29.82 1010 10 16 0.00 0.00
8:54 pm 20:54 Mostly Cloudy 36 2.2 26 -3.3 67 67 VRB 3 6 29.82 1010 10 16 0.00 0.00
9:54 pm 21:54 Cloudy 36 2.2 26 -3.3 67 67 Calm 29.83 1010 10 16 0.00 0.00
10:54 pm 22:54 Cloudy 36 2.2 27 -2.8 70 70 SSW 3 6 29.82 1010 10 16 0.00 0.00
11:54 pm 23:54 Cloudy 36 2.2 27 -2.8 70 70 Calm 29.81 1010 10 16 0.00 0.00

Powered by AerisWeather